Vernal, UT

7:55 AM MDT on July 25, 2017 (GMT -0600)
Vernal

Weather History for KVEL - February, 2014

Change the Weather History Date:

Wednesday, February 5, 2014

  Actual Average Record
Temperature  
Mean Temperature 11 °F 22 °F  
Max Temperature 19 °F 32 °F 56 °F (1963)
Min Temperature 2 °F 12 °F -18 °F (1982)
Degree Days  
Heating Degree Days 54 43  
Month to date heating degree days 250 218  
Since 1 July heating degree days 5094 4613  
Cooling Degree Days 0 0  
Month to date cooling degree days 0 0  
Year to date cooling degree days 0 0  
Moisture  
Dew Point 8 °F    
Average Humidity 84    
Maximum Humidity 100    
Minimum Humidity 67    
Precipitation  
Precipitation T in 0.01 in 0.31 in (1975)
Month to date precipitation 0.07 0.08  
Year to date precipitation 0.30 0.58  
Sea Level Pressure  
Sea Level Pressure 30.20 in    
Wind  
Wind Speed 2 mph (NNE)    
Max Wind Speed 10 mph    
Max Gust Speed 13 mph    
Visibility 6 miles    
Events Snow    
T = Trace of Precipitation, MM = Missing Value Source: NWS Daily Summary

Daily Weather History Graph

Daily Weather History Graph

Search for Another Location

Airport or City:

Trip Planner

Search our weather history database for the weather conditions in past years. The results will help you decide how hot, cold, wet, or windy it might be!

Date:

Astronomy

Feb. 05, 2014 Rise Set
Actual Time 7:23 AM MST 5:41 PM MST
Civil Twilight 6:54 AM MST 6:09 PM MST
Nautical Twilight 6:22 AM MST 6:42 PM MST
Astronomical Twilight 5:50 AM MST 7:14 PM MST
Moon 10:38 AM MST (2/5) No Moon Set
Length of Visible Light 11h 15m
Length of Day
10h 18m
Waxing Crescent, 40% of the Moon is Illuminated
Feb 5
Waxing Crescent
Feb 6
First Quarter
Feb 14
Full
Feb 22
Last Quarter
Mar 1
New

Hourly Weather History & Observations

Time (MST) Temp. Windchill Dew Point Humidity Pressure Visibility Wind Dir Wind Speed Gust Speed Precip Events Conditions
12:53 AM 15.1 °F 5.2 °F 7.0 °F 70% 30.24 in 10.0 mi NE 6.9 mph - N/A   Overcast
1:11 AM 15.1 °F 2.5 °F 10.0 °F 80% 30.09 in 4.0 mi NE 10.4 mph - 0.00 in Snow Light Snow
1:34 AM 15.1 °F 3.3 °F 10.9 °F 84% 30.09 in 2.5 mi NNE 9.2 mph - 0.00 in Snow Light Snow
1:53 AM 14.0 °F 5.1 °F 10.9 °F 88% 30.25 in 1.8 mi NNE 5.8 mph - 0.00 in Snow Light Snow
2:04 AM 15.1 °F 6.4 °F 10.9 °F 84% 30.10 in 2.0 mi NNE 5.8 mph - 0.00 in Snow Light Snow
2:18 AM 15.1 °F 9.4 °F 12.0 °F 88% 30.10 in 1.5 mi North 3.5 mph - 0.00 in Snow Light Snow
2:29 AM 15.1 °F 9.4 °F 12.0 °F 88% 30.10 in 1.8 mi NNW 3.5 mph - 0.00 in Snow Light Snow
2:38 AM 14.0 °F - 12.0 °F 92% 30.11 in 1.5 mi Calm Calm - 0.00 in Snow Light Snow
2:50 AM 14.0 °F - 12.2 °F 93% 30.11 in 2.0 mi Calm Calm - 0.00 in Snow Light Snow
2:51 AM 14.0 °F - 12.0 °F 92% 30.25 in 2.0 mi Calm Calm - 0.00 in Snow Light Snow
3:10 AM 14.0 °F - 12.0 °F 92% 30.11 in 2.5 mi Calm Calm - 0.00 in Snow Light Snow
3:18 AM 14.0 °F - 10.9 °F 88% 30.11 in 3.0 mi Calm Calm - 0.00 in Snow Light Snow
3:53 AM 12.9 °F 6.9 °F 10.9 °F 92% 30.27 in 4.0 mi SSW 3.5 mph - 0.00 in Snow Light Snow
4:53 AM 8.1 °F 1.4 °F 6.1 °F 92% 30.29 in 10.0 mi NE 3.5 mph - 0.00 in   Partly Cloudy
5:08 AM 6.1 °F -2.8 °F 3.9 °F 91% 30.12 in 10.0 mi North 4.6 mph - N/A   Mostly Cloudy
5:53 AM 9.0 °F - 6.1 °F 88% 30.30 in 9.0 mi Calm Calm - N/A   Overcast
6:19 AM 10.0 °F - 7.0 °F 87% 30.13 in 4.0 mi Calm Calm - 0.00 in Snow Light Snow
6:29 AM 10.0 °F - 7.0 °F 87% 30.13 in 2.5 mi Calm Calm - 0.00 in Snow Light Snow
6:53 AM 10.0 °F - 7.0 °F 87% 30.33 in 2.0 mi Calm Calm - 0.00 in Snow Light Snow
7:28 AM 10.0 °F - 8.1 °F 92% 30.14 in 1.5 mi Calm Calm - 0.00 in Snow Light Snow
7:46 AM 9.0 °F - 7.0 °F 92% 30.14 in 2.0 mi Calm Calm - 0.00 in Snow Light Snow
7:53 AM 10.0 °F - 7.0 °F 87% 30.34 in 2.5 mi Calm Calm - 0.00 in Snow Light Snow
8:08 AM 9.0 °F - 7.0 °F 92% 30.14 in 1.5 mi Calm Calm - 0.00 in Snow Light Snow
8:18 AM 10.0 °F 3.6 °F 7.0 °F 87% 30.14 in 2.0 mi North 3.5 mph - 0.00 in Snow Light Snow
8:33 AM 10.0 °F 3.6 °F 7.0 °F 87% 30.15 in 3.0 mi North 3.5 mph - 0.00 in Snow Light Snow
8:53 AM 9.0 °F - 8.1 °F 96% 30.35 in 2.0 mi Calm Calm - 0.00 in Snow Light Snow
9:13 AM 10.0 °F - 8.1 °F 92% 30.15 in 4.0 mi Calm Calm - 0.00 in   Overcast
9:53 AM 10.9 °F - 8.1 °F 88% 30.36 in 10.0 mi Calm Calm - 0.00 in   Overcast
10:29 AM 9.0 °F -0.9 °F 7.0 °F 92% 30.15 in 10.0 mi South 5.8 mph - N/A   Scattered Clouds
10:53 AM 10.9 °F 2.9 °F 8.1 °F 88% 30.35 in 10.0 mi South 4.6 mph - N/A   Clear
11:53 AM 12.0 °F 5.9 °F 7.0 °F 80% 30.33 in 10.0 mi South 3.5 mph - N/A   Clear
12:53 PM 16.0 °F 8.8 °F 8.1 °F 71% 30.27 in 10.0 mi ENE 4.6 mph - N/A   Clear
1:53 PM 18.0 °F - 9.0 °F 68% 30.23 in 10.0 mi Calm Calm - N/A   Clear
2:53 PM 18.0 °F 11.1 °F 8.1 °F 65% 30.20 in 10.0 mi East 4.6 mph - N/A   Clear
3:53 PM 18.0 °F 12.7 °F 8.1 °F 65% 30.18 in 10.0 mi East 3.5 mph - N/A   Clear
4:53 PM 16.0 °F 10.4 °F 7.0 °F 68% 30.21 in 10.0 mi South 3.5 mph - N/A   Clear
5:53 PM 15.1 °F 9.4 °F 7.0 °F 70% 30.20 in 10.0 mi West 3.5 mph - N/A   Clear
6:53 PM 10.0 °F 1.8 °F 5.0 °F 80% 30.22 in 10.0 mi WNW 4.6 mph - N/A   Clear
7:53 PM 9.0 °F - 3.9 °F 80% 30.23 in 10.0 mi Calm Calm - N/A   Clear
8:53 PM 8.1 °F - 3.0 °F 80% 30.25 in 10.0 mi Calm Calm - N/A   Partly Cloudy
9:53 PM 3.9 °F -3.4 °F -0.0 °F 84% 30.25 in 10.0 mi WNW 3.5 mph - N/A   Partly Cloudy
10:53 PM 3.0 °F -4.4 °F -0.9 °F 84% 30.25 in 8.0 mi NW 3.5 mph - N/A   Clear
11:53 PM 5.0 °F - -0.0 °F 80% 30.22 in 10.0 mi Calm Calm - N/A   Clear